owner,sensor,date,latitude,longitude,vertical_datum,mass_concentration_of_oxygen_in_sea_water,qcFlag 
NERRS,ioos:station:NOAA.NERRS:rkblhwq:1,2017-12-05T15:45:00Z,26.0257,-81.7332,0.84,5.7,1111122 
NERRS,ioos:station:NOAA.NERRS:rkblhwq:1,2017-12-05T16:45:00Z,26.0257,-81.7332,1.01,5.8,1111122 
NERRS,ioos:station:NOAA.NERRS:rkblhwq:1,2017-12-05T17:45:00Z,26.0257,-81.7332,1.18,5.9,1111122 
NERRS,ioos:station:NOAA.NERRS:rkblhwq:1,2017-12-05T18:45:00Z,26.0257,-81.7332,1.38,5.9,1111122 
NERRS,ioos:station:NOAA.NERRS:rkblhwq:1,2017-12-05T19:45:00Z,26.0257,-81.7332,1.52,5.9,1111122 
NERRS,ioos:station:NOAA.NERRS:rkblhwq:1,2017-12-05T20:45:00Z,26.0257,-81.7332,1.59,5.9,1111122 
NERRS,ioos:station:NOAA.NERRS:rkblhwq:1,2017-12-05T21:45:00Z,26.0257,-81.7332,1.53,5.9,1111122 
NERRS,ioos:station:NOAA.NERRS:rkblhwq:1,2017-12-05T22:45:00Z,26.0257,-81.7332,1.42,6.1,1111122 
NERRS,ioos:station:NOAA.NERRS:rkblhwq:1,2017-12-05T23:45:00Z,26.0257,-81.7332,1.31,5.9,1111122 
NERRS,ioos:station:NOAA.NERRS:rkblhwq:1,2017-12-06T00:45:00Z,26.0257,-81.7332,1.22,5.8,1111122 
NERRS,ioos:station:NOAA.NERRS:rkblhwq:1,2017-12-06T01:45:00Z,26.0257,-81.7332,1.18,5.5,1111122 
NERRS,ioos:station:NOAA.NERRS:rkblhwq:1,2017-12-06T02:45:00Z,26.0257,-81.7332,1.26,5.6,1111122 
NERRS,ioos:station:NOAA.NERRS:rkblhwq:1,2017-12-06T03:45:00Z,26.0257,-81.7332,1.41,5.6,1111122 
NERRS,ioos:station:NOAA.NERRS:rkblhwq:1,2017-12-06T04:45:00Z,26.0257,-81.7332,1.56,5.6,1111122 
NERRS,ioos:station:NOAA.NERRS:rkblhwq:1,2017-12-06T05:45:00Z,26.0257,-81.7332,1.68,5.6,1111122 
NERRS,ioos:station:NOAA.NERRS:rkblhwq:1,2017-12-06T06:45:00Z,26.0257,-81.7332,1.75,5.6,1111122 
NERRS,ioos:station:NOAA.NERRS:rkblhwq:1,2017-12-06T07:45:00Z,26.0257,-81.7332,1.77,5.5,1111122 
NERRS,ioos:station:NOAA.NERRS:rkblhwq:1,2017-12-06T08:45:00Z,26.0257,-81.7332,1.7,5.4,1111122 
NERRS,ioos:station:NOAA.NERRS:rkblhwq:1,2017-12-06T09:45:00Z,26.0257,-81.7332,1.56,5.7,1111122 
NERRS,ioos:station:NOAA.NERRS:rkblhwq:1,2017-12-06T10:45:00Z,26.0257,-81.7332,1.39,5.6,1111122 
NERRS,ioos:station:NOAA.NERRS:rkblhwq:1,2017-12-06T11:45:00Z,26.0257,-81.7332,1.21,5.2,1111122 
NERRS,ioos:station:NOAA.NERRS:rkblhwq:1,2017-12-06T12:45:00Z,26.0257,-81.7332,1.03,5.1,1111122 
NERRS,ioos:station:NOAA.NERRS:rkblhwq:1,2017-12-06T13:45:00Z,26.0257,-81.7332,0.87,4.7,1111122 
NERRS,ioos:station:NOAA.NERRS:rkblhwq:1,2017-12-06T14:45:00Z,26.0257,-81.7332,0.75,4.9,1111122 
NERRS,ioos:station:NOAA.NERRS:rkblhwq:1,2017-12-06T15:45:00Z,26.0257,-81.7332,0.73,5.5,1111122 
NERRS,ioos:station:NOAA.NERRS:rkblhwq:1,2017-12-06T16:45:00Z,26.0257,-81.7332,0.86,5.7,1111122 
NERRS,ioos:station:NOAA.NERRS:rkblhwq:1,2017-12-06T17:45:00Z,26.0257,-81.7332,1.02,5.8,1111122 
NERRS,ioos:station:NOAA.NERRS:rkblhwq:1,2017-12-06T18:45:00Z,26.0257,-81.7332,1.21,5.9,1111122 
NERRS,ioos:station:NOAA.NERRS:rkblhwq:1,2017-12-06T19:45:00Z,26.0257,-81.7332,1.39,5.9,1111122 
NERRS,ioos:station:NOAA.NERRS:rkblhwq:1,2017-12-06T20:45:00Z,26.0257,-81.7332,1.52,6.0,1111122 
NERRS,ioos:station:NOAA.NERRS:rkblhwq:1,2017-12-06T21:45:00Z,26.0257,-81.7332,1.58,5.8,1111122 
NERRS,ioos:station:NOAA.NERRS:rkblhwq:1,2017-12-06T22:45:00Z,26.0257,-81.7332,1.48,5.9,1111122 
NERRS,ioos:station:NOAA.NERRS:rkblhwq:1,2017-12-06T23:45:00Z,26.0257,-81.7332,1.38,6.1,1111122 
NERRS,ioos:station:NOAA.NERRS:rkblhwq:1,2017-12-07T00:45:00Z,26.0257,-81.7332,1.27,5.9,1111122 
NERRS,ioos:station:NOAA.NERRS:rkblhwq:1,2017-12-07T01:45:00Z,26.0257,-81.7332,1.18,5.8,1111122 
NERRS,ioos:station:NOAA.NERRS:rkblhwq:1,2017-12-07T02:45:00Z,26.0257,-81.7332,1.17,5.6,1111122 
NERRS,ioos:station:NOAA.NERRS:rkblhwq:1,2017-12-07T03:45:00Z,26.0257,-81.7332,1.27,5.5,1111122 
NERRS,ioos:station:NOAA.NERRS:rkblhwq:1,2017-12-07T04:45:00Z,26.0257,-81.7332,1.39,5.4,1111122 
NERRS,ioos:station:NOAA.NERRS:rkblhwq:1,2017-12-07T05:45:00Z,26.0257,-81.7332,1.52,5.5,1111122 
NERRS,ioos:station:NOAA.NERRS:rkblhwq:1,2017-12-07T06:45:00Z,26.0257,-81.7332,1.6,5.4,1111122 
NERRS,ioos:station:NOAA.NERRS:rkblhwq:1,2017-12-07T07:45:00Z,26.0257,-81.7332,1.65,5.3,1111122 
NERRS,ioos:station:NOAA.NERRS:rkblhwq:1,2017-12-07T08:45:00Z,26.0257,-81.7332,1.67,5.2,1111122 
NERRS,ioos:station:NOAA.NERRS:rkblhwq:1,2017-12-07T09:45:00Z,26.0257,-81.7332,1.6,5.2,1111122 
NERRS,ioos:station:NOAA.NERRS:rkblhwq:1,2017-12-07T11:45:00Z,26.0257,-81.7332,1.3,5.1,1111122 
NERRS,ioos:station:NOAA.NERRS:rkblhwq:1,2017-12-07T12:45:00Z,26.0257,-81.7332,1.12,5.0,1111122 
NERRS,ioos:station:NOAA.NERRS:rkblhwq:1,2017-12-07T13:45:00Z,26.0257,-81.7332,0.96,4.8,1111122 
NERRS,ioos:station:NOAA.NERRS:rkblhwq:1,2017-12-07T14:45:00Z,26.0257,-81.7332,0.82,5.2,1111122 
NERRS,ioos:station:NOAA.NERRS:rkblhwq:1,2017-12-07T15:45:00Z,26.0257,-81.7332,0.7,5.2,1111122 
NERRS,ioos:station:NOAA.NERRS:rkblhwq:1,2017-12-07T16:45:00Z,26.0257,-81.7332,0.73,5.7,1111122 
NERRS,ioos:station:NOAA.NERRS:rkblhwq:1,2017-12-07T17:45:00Z,26.0257,-81.7332,0.85,5.6,1111122 
NERRS,ioos:station:NOAA.NERRS:rkblhwq:1,2017-12-07T18:45:00Z,26.0257,-81.7332,1.01,6.0,1111122 
NERRS,ioos:station:NOAA.NERRS:rkblhwq:1,2017-12-07T19:45:00Z,26.0257,-81.7332,1.2,5.9,1111122 
NERRS,ioos:station:NOAA.NERRS:rkblhwq:1,2017-12-07T21:45:00Z,26.0257,-81.7332,1.49,5.8,1111122 
NERRS,ioos:station:NOAA.NERRS:rkblhwq:1,2017-12-07T22:45:00Z,26.0257,-81.7332,1.53,5.5,1111122 
NERRS,ioos:station:NOAA.NERRS:rkblhwq:1,2017-12-07T23:45:00Z,26.0257,-81.7332,1.46,5.6,1111122 
NERRS,ioos:station:NOAA.NERRS:rkblhwq:1,2017-12-08T00:45:00Z,26.0257,-81.7332,1.37,5.9,1111122 
NERRS,ioos:station:NOAA.NERRS:rkblhwq:1,2017-12-08T01:45:00Z,26.0257,-81.7332,1.28,5.9,1111122 
NERRS,ioos:station:NOAA.NERRS:rkblhwq:1,2017-12-08T02:45:00Z,26.0257,-81.7332,1.21,5.4,1111122 
NERRS,ioos:station:NOAA.NERRS:rkblhwq:1,2017-12-08T03:45:00Z,26.0257,-81.7332,1.19,5.4,1111122 
NERRS,ioos:station:NOAA.NERRS:rkblhwq:1,2017-12-08T04:45:00Z,26.0257,-81.7332,1.27,5.3,1111122 
NERRS,ioos:station:NOAA.NERRS:rkblhwq:1,2017-12-08T05:45:00Z,26.0257,-81.7332,1.38,5.2,1111122 
NERRS,ioos:station:NOAA.NERRS:rkblhwq:1,2017-12-08T06:45:00Z,26.0257,-81.7332,1.49,5.2,1111122 
NERRS,ioos:station:NOAA.NERRS:rkblhwq:1,2017-12-08T07:45:00Z,26.0257,-81.7332,1.58,5.2,1111122 
NERRS,ioos:station:NOAA.NERRS:rkblhwq:1,2017-12-08T08:45:00Z,26.0257,-81.7332,1.64,5.1,1111122 
NERRS,ioos:station:NOAA.NERRS:rkblhwq:1,2017-12-08T09:45:00Z,26.0257,-81.7332,1.66,5.1,1111122 
NERRS,ioos:station:NOAA.NERRS:rkblhwq:1,2017-12-08T10:45:00Z,26.0257,-81.7332,1.6,5.0,1111122 
NERRS,ioos:station:NOAA.NERRS:rkblhwq:1,2017-12-08T11:45:00Z,26.0257,-81.7332,1.48,5.2,1111122 
NERRS,ioos:station:NOAA.NERRS:rkblhwq:1,2017-12-08T12:45:00Z,26.0257,-81.7332,1.32,4.7,1111122 
NERRS,ioos:station:NOAA.NERRS:rkblhwq:1,2017-12-08T13:45:00Z,26.0257,-81.7332,1.16,4.7,1111122 
NERRS,ioos:station:NOAA.NERRS:rkblhwq:1,2017-12-08T14:45:00Z,26.0257,-81.7332,1.01,5.0,1111122 
NERRS,ioos:station:NOAA.NERRS:rkblhwq:1,2017-12-08T15:45:00Z,26.0257,-81.7332,0.88,5.5,1111122 
NERRS,ioos:station:NOAA.NERRS:rkblhwq:1,2017-12-08T16:45:00Z,26.0257,-81.7332,0.82,5.7,1111122 
NERRS,ioos:station:NOAA.NERRS:rkblhwq:1,2017-12-08T17:45:00Z,26.0257,-81.7332,0.88,5.9,1111122 
NERRS,ioos:station:NOAA.NERRS:rkblhwq:1,2017-12-08T18:45:00Z,26.0257,-81.7332,1.01,5.8,1111122 
NERRS,ioos:station:NOAA.NERRS:rkblhwq:1,2017-12-08T19:45:00Z,26.0257,-81.7332,1.16,6.1,1111122 
NERRS,ioos:station:NOAA.NERRS:rkblhwq:1,2017-12-08T20:45:00Z,26.0257,-81.7332,1.32,6.1,1111122 
NERRS,ioos:station:NOAA.NERRS:rkblhwq:1,2017-12-08T21:45:00Z,26.0257,-81.7332,1.46,6.0,1111122 
NERRS,ioos:station:NOAA.NERRS:rkblhwq:1,2017-12-08T22:45:00Z,26.0257,-81.7332,1.55,5.8,1111122 
NERRS,ioos:station:NOAA.NERRS:rkblhwq:1,2017-12-08T23:45:00Z,26.0257,-81.7332,1.59,5.6,1111122 
NERRS,ioos:station:NOAA.NERRS:rkblhwq:1,2017-12-09T00:45:00Z,26.0257,-81.7332,1.52,5.9,1111122 
NERRS,ioos:station:NOAA.NERRS:rkblhwq:1,2017-12-09T01:45:00Z,26.0257,-81.7332,1.44,5.8,1111122 
NERRS,ioos:station:NOAA.NERRS:rkblhwq:1,2017-12-09T02:45:00Z,26.0257,-81.7332,1.35,5.9,1111122 
NERRS,ioos:station:NOAA.NERRS:rkblhwq:1,2017-12-09T03:45:00Z,26.0257,-81.7332,1.28,5.9,1111122 
NERRS,ioos:station:NOAA.NERRS:rkblhwq:1,2017-12-09T04:45:00Z,26.0257,-81.7332,1.24,5.4,1111122 
NERRS,ioos:station:NOAA.NERRS:rkblhwq:1,2017-12-09T05:45:00Z,26.0257,-81.7332,1.29,5.5,1111122 
NERRS,ioos:station:NOAA.NERRS:rkblhwq:1,2017-12-09T06:45:00Z,26.0257,-81.7332,1.39,5.4,1111122 
NERRS,ioos:station:NOAA.NERRS:rkblhwq:1,2017-12-09T07:45:00Z,26.0257,-81.7332,1.5,5.5,1111122 
NERRS,ioos:station:NOAA.NERRS:rkblhwq:1,2017-12-09T08:45:00Z,26.0257,-81.7332,1.59,5.3,1111122 
NERRS,ioos:station:NOAA.NERRS:rkblhwq:1,2017-12-09T09:45:00Z,26.0257,-81.7332,1.64,5.4,1111122 
NERRS,ioos:station:NOAA.NERRS:rkblhwq:1,2017-12-09T10:45:00Z,26.0257,-81.7332,1.64,5.2,1111122 
NERRS,ioos:station:NOAA.NERRS:rkblhwq:1,2017-12-09T11:45:00Z,26.0257,-81.7332,1.73,5.5,1111122 
NERRS,ioos:station:NOAA.NERRS:rkblhwq:1,2017-12-09T12:45:00Z,26.0257,-81.7332,1.65,5.6,1111122 
NERRS,ioos:station:NOAA.NERRS:rkblhwq:1,2017-12-09T13:45:00Z,26.0257,-81.7332,1.52,5.6,1111122 
NERRS,ioos:station:NOAA.NERRS:rkblhwq:1,2017-12-09T14:45:00Z,26.0257,-81.7332,1.34,5.4,1111122 
NERRS,ioos:station:NOAA.NERRS:rkblhwq:1,2017-12-09T15:45:00Z,26.0257,-81.7332,1.14,4.9,1111122 
NERRS,ioos:station:NOAA.NERRS:rkblhwq:1,2017-12-09T16:45:00Z,26.0257,-81.7332,0.97,5.0,1111122 
NERRS,ioos:station:NOAA.NERRS:rkblhwq:1,2017-12-09T17:45:00Z,26.0257,-81.7332,0.85,5.5,1111122 
NERRS,ioos:station:NOAA.NERRS:rkblhwq:1,2017-12-09T18:45:00Z,26.0257,-81.7332,0.88,5.8,1111122 
NERRS,ioos:station:NOAA.NERRS:rkblhwq:1,2017-12-09T19:45:00Z,26.0257,-81.7332,1.03,5.8,1111122 
NERRS,ioos:station:NOAA.NERRS:rkblhwq:1,2017-12-09T20:45:00Z,26.0257,-81.7332,1.19,6.1,1111122 
NERRS,ioos:station:NOAA.NERRS:rkblhwq:1,2017-12-09T21:45:00Z,26.0257,-81.7332,1.27,6.2,1111122 
NERRS,ioos:station:NOAA.NERRS:rkblhwq:1,2017-12-09T22:45:00Z,26.0257,-81.7332,1.3,6.0,1111122 
NERRS,ioos:station:NOAA.NERRS:rkblhwq:1,2017-12-09T23:45:00Z,26.0257,-81.7332,1.31,5.8,1111122 
NERRS,ioos:station:NOAA.NERRS:rkblhwq:1,2017-12-10T00:45:00Z,26.0257,-81.7332,1.27,5.8,1111122 
NERRS,ioos:station:NOAA.NERRS:rkblhwq:1,2017-12-10T01:45:00Z,26.0257,-81.7332,1.26,5.9,1111122 
NERRS,ioos:station:NOAA.NERRS:rkblhwq:1,2017-12-10T02:45:00Z,26.0257,-81.7332,1.2,5.8,1111122 
NERRS,ioos:station:NOAA.NERRS:rkblhwq:1,2017-12-10T03:45:00Z,26.0257,-81.7332,1.14,5.8,1111122 
NERRS,ioos:station:NOAA.NERRS:rkblhwq:1,2017-12-10T04:45:00Z,26.0257,-81.7332,1.05,5.7,1111122 
NERRS,ioos:station:NOAA.NERRS:rkblhwq:1,2017-12-10T05:45:00Z,26.0257,-81.7332,0.95,5.2,1111122 
NERRS,ioos:station:NOAA.NERRS:rkblhwq:1,2017-12-10T06:45:00Z,26.0257,-81.7332,0.89,5.4,1111122 
NERRS,ioos:station:NOAA.NERRS:rkblhwq:1,2017-12-10T07:45:00Z,26.0257,-81.7332,0.94,5.7,1111122 
NERRS,ioos:station:NOAA.NERRS:rkblhwq:1,2017-12-10T08:45:00Z,26.0257,-81.7332,1.03,5.7,1111122 
NERRS,ioos:station:NOAA.NERRS:rkblhwq:1,2017-12-10T09:45:00Z,26.0257,-81.7332,1.11,5.7,1111122 
NERRS,ioos:station:NOAA.NERRS:rkblhwq:1,2017-12-10T10:45:00Z,26.0257,-81.7332,1.17,5.6,1111122 
NERRS,ioos:station:NOAA.NERRS:rkblhwq:1,2017-12-10T11:45:00Z,26.0257,-81.7332,1.19,5.6,1111122 
NERRS,ioos:station:NOAA.NERRS:rkblhwq:1,2017-12-10T12:45:00Z,26.0257,-81.7332,1.19,5.8,1111122 
NERRS,ioos:station:NOAA.NERRS:rkblhwq:1,2017-12-10T13:45:00Z,26.0257,-81.7332,1.13,6.0,1111122 
NERRS,ioos:station:NOAA.NERRS:rkblhwq:1,2017-12-10T14:45:00Z,26.0257,-81.7332,1.06,5.9,1111122 
NERRS,ioos:station:NOAA.NERRS:rkblhwq:1,2017-12-10T15:45:00Z,26.0257,-81.7332,0.97,6.0,1111122 
NERRS,ioos:station:NOAA.NERRS:rkblhwq:1,2017-12-10T16:45:00Z,26.0257,-81.7332,0.9,6.5,1111122 
NERRS,ioos:station:NOAA.NERRS:rkblhwq:1,2017-12-10T17:45:00Z,26.0257,-81.7332,0.83,6.8,1111122 
NERRS,ioos:station:NOAA.NERRS:rkblhwq:1,2017-12-10T18:45:00Z,26.0257,-81.7332,0.8,7.1,1111122 
NERRS,ioos:station:NOAA.NERRS:rkblhwq:1,2017-12-10T19:45:00Z,26.0257,-81.7332,0.86,7.2,1111122 
NERRS,ioos:station:NOAA.NERRS:rkblhwq:1,2017-12-10T20:45:00Z,26.0257,-81.7332,0.98,7.2,1111122 
NERRS,ioos:station:NOAA.NERRS:rkblhwq:1,2017-12-10T21:45:00Z,26.0257,-81.7332,1.11,7.2,1111122 
NERRS,ioos:station:NOAA.NERRS:rkblhwq:1,2017-12-10T22:45:00Z,26.0257,-81.7332,1.25,7.1,1111122 
NERRS,ioos:station:NOAA.NERRS:rkblhwq:1,2017-12-10T23:45:00Z,26.0257,-81.7332,1.37,7.1,1111122 
NERRS,ioos:station:NOAA.NERRS:rkblhwq:1,2017-12-11T00:45:00Z,26.0257,-81.7332,1.46,6.9,1111122 
NERRS,ioos:station:NOAA.NERRS:rkblhwq:1,2017-12-11T01:45:00Z,26.0257,-81.7332,1.45,6.9,1111122 
NERRS,ioos:station:NOAA.NERRS:rkblhwq:1,2017-12-11T02:45:00Z,26.0257,-81.7332,1.36,6.7,1111122 
NERRS,ioos:station:NOAA.NERRS:rkblhwq:1,2017-12-11T03:45:00Z,26.0257,-81.7332,1.27,6.7,1111122 
NERRS,ioos:station:NOAA.NERRS:rkblhwq:1,2017-12-11T04:45:00Z,26.0257,-81.7332,1.16,6.7,1111122 
NERRS,ioos:station:NOAA.NERRS:rkblhwq:1,2017-12-11T05:45:00Z,26.0257,-81.7332,1.07,6.8,1111122 
NERRS,ioos:station:NOAA.NERRS:rkblhwq:1,2017-12-11T06:45:00Z,26.0257,-81.7332,0.99,6.8,1111122 
NERRS,ioos:station:NOAA.NERRS:rkblhwq:1,2017-12-11T07:45:00Z,26.0257,-81.7332,0.95,6.8,1111122 
NERRS,ioos:station:NOAA.NERRS:rkblhwq:1,2017-12-11T08:45:00Z,26.0257,-81.7332,0.98,6.9,1111122 
NERRS,ioos:station:NOAA.NERRS:rkblhwq:1,2017-12-11T09:45:00Z,26.0257,-81.7332,1.07,6.8,1111122 
NERRS,ioos:station:NOAA.NERRS:rkblhwq:1,2017-12-11T10:45:00Z,26.0257,-81.7332,1.15,6.7,1111122 
NERRS,ioos:station:NOAA.NERRS:rkblhwq:1,2017-12-11T11:45:00Z,26.0257,-81.7332,1.23,6.5,1111122 
NERRS,ioos:station:NOAA.NERRS:rkblhwq:1,2017-12-11T12:45:00Z,26.0257,-81.7332,1.28,6.4,1111122 
NERRS,ioos:station:NOAA.NERRS:rkblhwq:1,2017-12-11T13:45:00Z,26.0257,-81.7332,1.29,6.4,1111122 
NERRS,ioos:station:NOAA.NERRS:rkblhwq:1,2017-12-11T14:45:00Z,26.0257,-81.7332,1.22,7.0,1111122 
NERRS,ioos:station:NOAA.NERRS:rkblhwq:1,2017-12-11T15:45:00Z,26.0257,-81.7332,1.13,7.1,1111122 
NERRS,ioos:station:NOAA.NERRS:rkblhwq:1,2017-12-11T16:45:00Z,26.0257,-81.7332,1.03,7.3,1111122 
NERRS,ioos:station:NOAA.NERRS:rkblhwq:1,2017-12-11T17:45:00Z,26.0257,-81.7332,0.94,7.6,1111122 
NERRS,ioos:station:NOAA.NERRS:rkblhwq:1,2017-12-11T18:45:00Z,26.0257,-81.7332,0.86,7.8,1111122 
NERRS,ioos:station:NOAA.NERRS:rkblhwq:1,2017-12-11T19:45:00Z,26.0257,-81.7332,0.88,7.6,1111122 
NERRS,ioos:station:NOAA.NERRS:rkblhwq:1,2017-12-11T20:45:00Z,26.0257,-81.7332,0.95,7.8,1111122 
NERRS,ioos:station:NOAA.NERRS:rkblhwq:1,2017-12-11T21:45:00Z,26.0257,-81.7332,1.07,7.8,1111122 
NERRS,ioos:station:NOAA.NERRS:rkblhwq:1,2017-12-11T22:45:00Z,26.0257,-81.7332,1.19,7.6,1111122 
NERRS,ioos:station:NOAA.NERRS:rkblhwq:1,2017-12-11T23:45:00Z,26.0257,-81.7332,1.31,7.5,1111122 
NERRS,ioos:station:NOAA.NERRS:rkblhwq:1,2017-12-12T00:45:00Z,26.0257,-81.7332,1.42,7.3,1111122 
NERRS,ioos:station:NOAA.NERRS:rkblhwq:1,2017-12-12T01:45:00Z,26.0257,-81.7332,1.5,7.2,1111122 
NERRS,ioos:station:NOAA.NERRS:rkblhwq:1,2017-12-12T02:45:00Z,26.0257,-81.7332,1.5,7.0,1111122 
NERRS,ioos:station:NOAA.NERRS:rkblhwq:1,2017-12-12T03:45:00Z,26.0257,-81.7332,1.41,7.2,1111122 
NERRS,ioos:station:NOAA.NERRS:rkblhwq:1,2017-12-12T04:45:00Z,26.0257,-81.7332,1.3,7.0,1111122 
NERRS,ioos:station:NOAA.NERRS:rkblhwq:1,2017-12-12T05:45:00Z,26.0257,-81.7332,1.19,7.0,1111122 
NERRS,ioos:station:NOAA.NERRS:rkblhwq:1,2017-12-12T06:45:00Z,26.0257,-81.7332,1.08,7.2,1111122 
NERRS,ioos:station:NOAA.NERRS:rkblhwq:1,2017-12-12T07:45:00Z,26.0257,-81.7332,1.0,7.2,1111122 
NERRS,ioos:station:NOAA.NERRS:rkblhwq:1,2017-12-12T08:45:00Z,26.0257,-81.7332,0.98,7.0,1111122 
NERRS,ioos:station:NOAA.NERRS:rkblhwq:1,2017-12-12T09:45:00Z,26.0257,-81.7332,1.05,6.9,1111122 
NERRS,ioos:station:NOAA.NERRS:rkblhwq:1,2017-12-12T10:45:00Z,26.0257,-81.7332,1.16,7.0,1111122 
NERRS,ioos:station:NOAA.NERRS:rkblhwq:1,2017-12-12T11:45:00Z,26.0257,-81.7332,1.27,6.8,1111122 
NERRS,ioos:station:NOAA.NERRS:rkblhwq:1,2017-12-12T12:45:00Z,26.0257,-81.7332,1.38,6.7,1111122 
NERRS,ioos:station:NOAA.NERRS:rkblhwq:1,2017-12-12T13:45:00Z,26.0257,-81.7332,1.47,6.7,1111122 
NERRS,ioos:station:NOAA.NERRS:rkblhwq:1,2017-12-12T14:45:00Z,26.0257,-81.7332,1.52,6.6,1111122 
NERRS,ioos:station:NOAA.NERRS:rkblhwq:1,2017-12-12T15:45:00Z,26.0257,-81.7332,1.5,6.7,1111122 
NERRS,ioos:station:NOAA.NERRS:rkblhwq:1,2017-12-12T16:45:00Z,26.0257,-81.7332,1.4,6.8,1111122 
NERRS,ioos:station:NOAA.NERRS:rkblhwq:1,2017-12-12T17:45:00Z,26.0257,-81.7332,1.29,6.9,1111122 
NERRS,ioos:station:NOAA.NERRS:rkblhwq:1,2017-12-12T19:45:00Z,26.0257,-81.7332,1.15,7.2,1111122 
NERRS,ioos:station:NOAA.NERRS:rkblhwq:1,2017-12-12T20:45:00Z,26.0257,-81.7332,1.18,7.3,1111122 
NERRS,ioos:station:NOAA.NERRS:rkblhwq:1,2017-12-12T21:45:00Z,26.0257,-81.7332,1.25,7.5,1111122 
NERRS,ioos:station:NOAA.NERRS:rkblhwq:1,2017-12-13T08:45:00Z,26.0257,-81.7332,0.91,7.0,1111122 
NERRS,ioos:station:NOAA.NERRS:rkblhwq:1,2017-12-13T09:45:00Z,26.0257,-81.7332,0.83,6.9,1111122 
NERRS,ioos:station:NOAA.NERRS:rkblhwq:1,2017-12-13T10:45:00Z,26.0257,-81.7332,0.86,7.0,1111122 
NERRS,ioos:station:NOAA.NERRS:rkblhwq:1,2017-12-13T11:45:00Z,26.0257,-81.7332,0.96,6.9,1111122 
NERRS,ioos:station:NOAA.NERRS:rkblhwq:1,2017-12-13T12:45:00Z,26.0257,-81.7332,1.07,6.9,1111122 
NERRS,ioos:station:NOAA.NERRS:rkblhwq:1,2017-12-13T13:45:00Z,26.0257,-81.7332,1.17,6.9,1111122 
NERRS,ioos:station:NOAA.NERRS:rkblhwq:1,2017-12-13T16:45:00Z,26.0257,-81.7332,1.32,7.2,1111122 
NERRS,ioos:station:NOAA.NERRS:rkblhwq:1,2017-12-13T17:45:00Z,26.0257,-81.7332,1.25,7.4,1111122 
NERRS,ioos:station:NOAA.NERRS:rkblhwq:1,2017-12-13T18:45:00Z,26.0257,-81.7332,1.16,7.6,1111122 
NERRS,ioos:station:NOAA.NERRS:rkblhwq:1,2017-12-13T19:45:00Z,26.0257,-81.7332,1.12,7.7,1111122 
NERRS,ioos:station:NOAA.NERRS:rkblhwq:1,2017-12-13T20:45:00Z,26.0257,-81.7332,1.09,7.9,1111122 
NERRS,ioos:station:NOAA.NERRS:rkblhwq:1,2017-12-13T21:45:00Z,26.0257,-81.7332,1.13,7.8,1111122 
NERRS,ioos:station:NOAA.NERRS:rkblhwq:1,2017-12-14T10:45:00Z,26.0257,-81.7332,0.87,6.8,1111122 
NERRS,ioos:station:NOAA.NERRS:rkblhwq:1,2017-12-14T11:45:00Z,26.0257,-81.7332,0.96,7.0,1111122 
NERRS,ioos:station:NOAA.NERRS:rkblhwq:1,2017-12-14T12:45:00Z,26.0257,-81.7332,1.09,7.0,1111122 
NERRS,ioos:station:NOAA.NERRS:rkblhwq:1,2017-12-14T13:45:00Z,26.0257,-81.7332,1.21,7.1,1111122 
NERRS,ioos:station:NOAA.NERRS:rkblhwq:1,2017-12-14T14:45:00Z,26.0257,-81.7332,1.34,7.1,1111122 
NERRS,ioos:station:NOAA.NERRS:rkblhwq:1,2017-12-14T15:45:00Z,26.0257,-81.7332,1.44,7.2,1111122 
NERRS,ioos:station:NOAA.NERRS:rkblhwq:1,2017-12-14T16:45:00Z,26.0257,-81.7332,1.5,7.3,1111122 
NERRS,ioos:station:NOAA.NERRS:rkblhwq:1,2017-12-14T17:45:00Z,26.0257,-81.7332,1.46,7.4,1111122 
NERRS,ioos:station:NOAA.NERRS:rkblhwq:1,2017-12-14T18:45:00Z,26.0257,-81.7332,1.36,7.4,1111122 
NERRS,ioos:station:NOAA.NERRS:rkblhwq:1,2017-12-14T19:45:00Z,26.0257,-81.7332,1.27,7.4,1111122 
NERRS,ioos:station:NOAA.NERRS:rkblhwq:1,2017-12-14T20:45:00Z,26.0257,-81.7332,1.19,7.5,1111122 
NERRS,ioos:station:NOAA.NERRS:rkblhwq:1,2017-12-14T21:45:00Z,26.0257,-81.7332,1.14,7.6,1111122 
NERRS,ioos:station:NOAA.NERRS:rkblhwq:1,2017-12-14T22:45:00Z,26.0257,-81.7332,1.18,7.6,1111122 
NERRS,ioos:station:NOAA.NERRS:rkblhwq:1,2017-12-14T23:45:00Z,26.0257,-81.7332,1.29,7.5,1111122 
NERRS,ioos:station:NOAA.NERRS:rkblhwq:1,2017-12-15T00:45:00Z,26.0257,-81.7332,1.42,7.6,1111122 
NERRS,ioos:station:NOAA.NERRS:rkblhwq:1,2017-12-15T01:45:00Z,26.0257,-81.7332,1.53,7.6,1111122 
NERRS,ioos:station:NOAA.NERRS:rkblhwq:1,2017-12-15T02:45:00Z,26.0257,-81.7332,1.63,7.5,1111122 
NERRS,ioos:station:NOAA.NERRS:rkblhwq:1,2017-12-15T03:45:00Z,26.0257,-81.7332,1.68,7.4,1111122 
NERRS,ioos:station:NOAA.NERRS:rkblhwq:1,2017-12-15T04:45:00Z,26.0257,-81.7332,1.65,7.3,1111122 
NERRS,ioos:station:NOAA.NERRS:rkblhwq:1,2017-12-15T05:45:00Z,26.0257,-81.7332,1.55,7.4,1111122 
NERRS,ioos:station:NOAA.NERRS:rkblhwq:1,2017-12-15T06:45:00Z,26.0257,-81.7332,1.42,7.3,1111122 
NERRS,ioos:station:NOAA.NERRS:rkblhwq:1,2017-12-15T07:45:00Z,26.0257,-81.7332,1.27,7.3,1111122 
NERRS,ioos:station:NOAA.NERRS:rkblhwq:1,2017-12-15T08:45:00Z,26.0257,-81.7332,1.11,7.0,1111122 
NERRS,ioos:station:NOAA.NERRS:rkblhwq:1,2017-12-15T09:45:00Z,26.0257,-81.7332,0.97,7.0,1111122 
NERRS,ioos:station:NOAA.NERRS:rkblhwq:1,2017-12-15T10:45:00Z,26.0257,-81.7332,0.86,6.8,1111122 
NERRS,ioos:station:NOAA.NERRS:rkblhwq:1,2017-12-15T11:45:00Z,26.0257,-81.7332,0.83,6.7,1111122 
NERRS,ioos:station:NOAA.NERRS:rkblhwq:1,2017-12-15T13:45:00Z,26.0257,-81.7332,1.09,6.8,1111122 
NERRS,ioos:station:NOAA.NERRS:rkblhwq:1,2017-12-15T14:45:00Z,26.0257,-81.7332,1.23,6.9,1111122 
NERRS,ioos:station:NOAA.NERRS:rkblhwq:1,2017-12-15T15:45:00Z,26.0257,-81.7332,1.38,7.0,1111122 
NERRS,ioos:station:NOAA.NERRS:rkblhwq:1,2017-12-15T16:45:00Z,26.0257,-81.7332,1.49,7.2,1111122 
NERRS,ioos:station:NOAA.NERRS:rkblhwq:1,2017-12-15T17:45:00Z,26.0257,-81.7332,1.52,7.1,1111122 
NERRS,ioos:station:NOAA.NERRS:rkblhwq:1,2017-12-15T18:45:00Z,26.0257,-81.7332,1.43,7.3,1111122 
NERRS,ioos:station:NOAA.NERRS:rkblhwq:1,2017-12-15T19:45:00Z,26.0257,-81.7332,1.34,7.4,1111122 
NERRS,ioos:station:NOAA.NERRS:rkblhwq:1,2017-12-15T20:45:00Z,26.0257,-81.7332,1.26,7.4,1111122 
NERRS,ioos:station:NOAA.NERRS:rkblhwq:1,2017-12-15T21:45:00Z,26.0257,-81.7332,1.19,7.3,1111122 
NERRS,ioos:station:NOAA.NERRS:rkblhwq:1,2017-12-15T22:45:00Z,26.0257,-81.7332,1.15,7.2,1111122 
NERRS,ioos:station:NOAA.NERRS:rkblhwq:1,2017-12-15T23:45:00Z,26.0257,-81.7332,1.2,7.3,1111122 
NERRS,ioos:station:NOAA.NERRS:rkblhwq:1,2017-12-16T00:45:00Z,26.0257,-81.7332,1.31,7.2,1111122 
NERRS,ioos:station:NOAA.NERRS:rkblhwq:1,2017-12-16T01:45:00Z,26.0257,-81.7332,1.44,7.3,1111122 
NERRS,ioos:station:NOAA.NERRS:rkblhwq:1,2017-12-16T02:45:00Z,26.0257,-81.7332,1.55,7.3,1111122 
NERRS,ioos:station:NOAA.NERRS:rkblhwq:1,2017-12-16T03:45:00Z,26.0257,-81.7332,1.63,7.2,1111122 
NERRS,ioos:station:NOAA.NERRS:rkblhwq:1,2017-12-16T04:45:00Z,26.0257,-81.7332,1.64,6.8,1111122 
NERRS,ioos:station:NOAA.NERRS:rkblhwq:1,2017-12-16T05:45:00Z,26.0257,-81.7332,1.55,7.1,1111122 
NERRS,ioos:station:NOAA.NERRS:rkblhwq:1,2017-12-16T06:45:00Z,26.0257,-81.7332,1.41,6.9,1111122 
NERRS,ioos:station:NOAA.NERRS:rkblhwq:1,2017-12-16T07:45:00Z,26.0257,-81.7332,1.25,6.8,1111122 
NERRS,ioos:station:NOAA.NERRS:rkblhwq:1,2017-12-16T08:45:00Z,26.0257,-81.7332,1.09,6.8,1111122 
NERRS,ioos:station:NOAA.NERRS:rkblhwq:1,2017-12-16T09:45:00Z,26.0257,-81.7332,0.94,6.7,1111122 
NERRS,ioos:station:NOAA.NERRS:rkblhwq:1,2017-12-16T10:45:00Z,26.0257,-81.7332,0.81,6.6,1111122 
NERRS,ioos:station:NOAA.NERRS:rkblhwq:1,2017-12-16T11:45:00Z,26.0257,-81.7332,0.71,6.4,1111122 
NERRS,ioos:station:NOAA.NERRS:rkblhwq:1,2017-12-16T12:45:00Z,26.0257,-81.7332,0.71,6.5,1111122 
NERRS,ioos:station:NOAA.NERRS:rkblhwq:1,2017-12-16T13:45:00Z,26.0257,-81.7332,0.84,6.4,1111122 
NERRS,ioos:station:NOAA.NERRS:rkblhwq:1,2017-12-16T14:45:00Z,26.0257,-81.7332,0.97,6.6,1111122 
NERRS,ioos:station:NOAA.NERRS:rkblhwq:1,2017-12-16T15:45:00Z,26.0257,-81.7332,1.1,6.9,1111122 
NERRS,ioos:station:NOAA.NERRS:rkblhwq:1,2017-12-16T16:45:00Z,26.0257,-81.7332,1.24,7.0,1111122 
NERRS,ioos:station:NOAA.NERRS:rkblhwq:1,2017-12-16T17:45:00Z,26.0257,-81.7332,1.34,7.1,1111122 
NERRS,ioos:station:NOAA.NERRS:rkblhwq:1,2017-12-16T18:45:00Z,26.0257,-81.7332,1.37,7.0,1111122 
NERRS,ioos:station:NOAA.NERRS:rkblhwq:1,2017-12-16T19:45:00Z,26.0257,-81.7332,1.28,7.1,1111122 
NERRS,ioos:station:NOAA.NERRS:rkblhwq:1,2017-12-16T20:45:00Z,26.0257,-81.7332,1.19,7.3,1111122 
NERRS,ioos:station:NOAA.NERRS:rkblhwq:1,2017-12-16T21:45:00Z,26.0257,-81.7332,1.14,7.4,1111122 
NERRS,ioos:station:NOAA.NERRS:rkblhwq:1,2017-12-16T22:45:00Z,26.0257,-81.7332,1.09,7.3,1111122 
NERRS,ioos:station:NOAA.NERRS:rkblhwq:1,2017-12-16T23:45:00Z,26.0257,-81.7332,1.09,7.0,1111122 
NERRS,ioos:station:NOAA.NERRS:rkblhwq:1,2017-12-17T00:45:00Z,26.0257,-81.7332,1.17,7.1,1111122 
NERRS,ioos:station:NOAA.NERRS:rkblhwq:1,2017-12-17T01:45:00Z,26.0257,-81.7332,1.28,7.1,1111122 
NERRS,ioos:station:NOAA.NERRS:rkblhwq:1,2017-12-17T02:45:00Z,26.0257,-81.7332,1.39,7.0,1111122 
NERRS,ioos:station:NOAA.NERRS:rkblhwq:1,2017-12-17T03:45:00Z,26.0257,-81.7332,1.48,7.0,1111122 